Location: Mabank
(32.3664°N, 96.1006°W)
Time: 12:45:27
(UTC-06:00)

OTV 5 (USA 277) - Visible Passes

Search period start: 24 November 2017 00:00
Search period end: 04 December 2017 00:00
Orbit: 404 x 417 km, 43.0° (Epoch: 07 September)

Date Brightness Start Highest point End Pass type
(mag) Time Alt. Az. Time Alt. Az. Time Alt. Az.
24 Nov ? 05:24:59 19° S 05:24:59 19° S 05:26:30 10° SSE visible
27 Nov ? 19:25:40 10° SSW 19:25:46 11° SSW 19:25:46 11° SSW visible
28 Nov ? 18:35:30 10° S 18:37:30 16° SE 18:37:30 16° SE visible
29 Nov ? 19:20:12 10° SW 19:21:56 28° SW 19:21:56 28° SW visible
30 Nov ? 18:29:18 10° SW 18:32:31 45° SE 18:33:31 33° E visible
01 Dec ? 19:15:35 10° W 19:17:49 31° WNW 19:17:49 31° WNW visible
02 Dec ? 18:24:19 10° WSW 18:27:39 60° NNW 18:29:16 27° NE visible
03 Dec ? 19:11:33 10° WNW 19:13:26 19° NW 19:13:26 19° NW visible
